TimeEDT,TemperatureF,Dew PointF,Humidity,Sea Level PressureIn,VisibilityMPH,Wind Direction,Wind SpeedMPH,Gust SpeedMPH,PrecipitationIn,Events,Conditions,WindDirDegrees,DateUTC
12:53 AM,54.0,51.1,90,29.90,10.0,Calm,Calm,-,N/A,,Clear,0,2011-10-12 04:53:00
1:53 AM,54.0,51.1,90,29.90,10.0,Calm,Calm,-,N/A,,Mostly Cloudy,0,2011-10-12 05:53:00
3:53 AM,59.0,55.0,87,29.88,10.0,Calm,Calm,-,N/A,,Overcast,0,2011-10-12 07:53:00
4:53 AM,59.0,54.0,83,29.88,10.0,Calm,Calm,-,N/A,,Overcast,0,2011-10-12 08:53:00
5:53 AM,60.1,55.0,83,29.88,10.0,Calm,Calm,-,N/A,,Overcast,0,2011-10-12 09:53:00
6:53 AM,61.0,55.9,83,29.88,10.0,Calm,Calm,-,N/A,,Overcast,0,2011-10-12 10:53:00
7:53 AM,61.0,55.9,83,29.88,10.0,SE,3.5,-,N/A,,Overcast,140,2011-10-12 11:53:00
8:53 AM,61.0,57.0,87,29.88,10.0,SE,3.5,-,N/A,,Overcast,140,2011-10-12 12:53:00
9:53 AM,62.1,57.9,86,29.87,10.0,ESE,6.9,-,N/A,,Overcast,110,2011-10-12 13:53:00
10:53 AM,64.0,57.9,80,29.85,10.0,SSE,5.8,-,N/A,,Overcast,160,2011-10-12 14:53:00
11:53 AM,66.0,57.9,75,29.85,10.0,South,4.6,-,N/A,,Overcast,180,2011-10-12 15:53:00
12:15 PM,66.2,57.2,73,29.86,10.0,ESE,6.9,-,N/A,,Overcast,120,2011-10-12 16:15:00
12:53 PM,66.9,57.9,73,29.83,10.0,SSE,5.8,-,N/A,,Overcast,150,2011-10-12 16:53:00
1:53 PM,66.9,57.9,73,29.81,10.0,ESE,5.8,-,N/A,,Overcast,120,2011-10-12 17:53:00
2:08 PM,68.0,57.2,68,29.81,10.0,ESE,5.8,-,N/A,,Overcast,110,2011-10-12 18:08:00
2:53 PM,69.1,57.9,68,29.78,10.0,ESE,6.9,-,N/A,,Scattered Clouds,120,2011-10-12 18:53:00
3:53 PM,71.1,57.9,63,29.75,10.0,SSE,8.1,-,N/A,,Scattered Clouds,150,2011-10-12 19:53:00
5:53 PM,69.1,57.9,68,29.73,10.0,ESE,6.9,-,N/A,,Scattered Clouds,110,2011-10-12 21:53:00
6:53 PM,66.0,57.0,73,29.73,10.0,ESE,5.8,-,N/A,,Clear,120,2011-10-12 22:53:00
7:53 PM,63.0,57.0,81,29.73,10.0,ESE,4.6,-,N/A,,Clear,110,2011-10-12 23:53:00
8:53 PM,62.1,57.0,84,29.73,10.0,ESE,5.8,-,N/A,,Clear,120,2011-10-13 00:53:00
9:44 PM,62.6,57.2,82,29.75,10.0,South,8.1,-,N/A,,Mostly Cloudy,190,2011-10-13 01:44:00
10:53 PM,62.1,59.0,90,29.71,5.0,SE,6.9,-,0.01,Rain,Light Rain,140,2011-10-13 02:53:00
11:01 PM,62.6,59.0,88,29.72,7.0,SSE,4.6,-,0.01,Rain,Light Rain,150,2011-10-13 03:01:00
11:53 PM,61.0,57.9,90,29.70,10.0,SSE,4.6,-,0.01,,Overcast,150,2011-10-13 03:53:00